Location: Bushrod
(6.3500°N, 10.7833°W)
Time: 14:41:07
(UTC+00:00)

Lacrosse 5 rocket - Pass Details

Date: 17 September 2019
Orbit: 459 x 639 km, 57.0° (Epoch: 19 October)

Event Time Altitude Azimuth Distance (km) Brightness Sun altitude
Rises 20:24:59 0° 250° (WSW) 2,471 5.7 -26.4°
Reaches altitude 10° 20:29:01 10° 295° (WNW) 1,590 4.5 -27.4°
Maximum altitude 20:29:29 10° 303° (WNW) 1,578 4.4 -27.5°
Drops below altitude 10° 20:29:58 10° 311° (NW) 1,591 4.3 -27.6°
Enters shadow 20:32:41 - 346° (NNW) 2,079 4.5 -28.3°
